* Astronomy

Members Login
Username 
 
Password 
    Remember Me  
Post Info TOPIC: Comet C/2010 X1 (ELENIN)


L

Posts: 131433
Date:
Comet C/2010 X1 (ELENIN)
Permalink  
 


Ephemeris
Date    TT    R. A. (2000) Decl.     Delta      r     Elong.  Phase   Mag

2011 01 01 12 06 03.1 -01 32 52 3.6706 3.9308 98.0 14.3 16.8
2011 01 02 12 06 17.2 -01 34 47 3.6431 3.9192 99.0 14.3 16.7
2011 01 03 12 06 30.5 -01 36 36 3.6157 3.9076 100.0 14.4 16.7
2011 01 04 12 06 43.0 -01 38 19 3.5883 3.8960 100.9 14.3 16.7
2011 01 05 12 06 54.7 -01 39 58 3.5609 3.8844 101.9 14.3 16.7
2011 01 06 12 07 05.4 -01 41 31 3.5336 3.8728 102.8 14.3 16.6
2011 01 07 12 07 15.2 -01 42 59 3.5063 3.8611 103.8 14.3 16.6
2011 01 08 12 07 24.2 -01 44 21 3.4791 3.8495 104.8 14.3 16.6
2011 01 09 12 07 32.2 -01 45 37 3.4519 3.8378 105.8 14.3 16.5
2011 01 10 12 07 39.3 -01 46 48 3.4248 3.8261 106.8 14.2 16.5
2011 01 11 12 07 45.4 -01 47 52 3.3978 3.8144 107.7 14.2 16.5
2011 01 12 12 07 50.6 -01 48 51 3.3709 3.8027 108.7 14.2 16.4
2011 01 13 12 07 54.7 -01 49 43 3.3440 3.7909 109.7 14.1 16.4
2011 01 14 12 07 57.9 -01 50 30 3.3172 3.7792 110.7 14.1 16.4
2011 01 15 12 08 00.0 -01 51 10 3.2906 3.7674 111.7 14.0 16.3
2011 01 16 12 08 01.1 -01 51 43 3.2640 3.7556 112.8 14.0 16.3
2011 01 17 12 08 01.2 -01 52 10 3.2375 3.7438 113.8 13.9 16.3
2011 01 18 12 08 00.2 -01 52 31 3.2111 3.7320 114.8 13.8 16.3
2011 01 19 12 07 58.1 -01 52 44 3.1848 3.7202 115.8 13.8 16.2
2011 01 20 12 07 54.8 -01 52 51 3.1586 3.7083 116.8 13.7 16.2
2011 01 21 12 07 50.5 -01 52 51 3.1326 3.6964 117.9 13.6 16.2
2011 01 22 12 07 45.0 -01 52 43 3.1066 3.6846 118.9 13.5 16.1
2011 01 23 12 07 38.4 -01 52 29 3.0808 3.6727 120.0 13.4 16.1
2011 01 24 12 07 30.6 -01 52 07 3.0552 3.6607 121.0 13.3 16.1
2011 01 25 12 07 21.6 -01 51 37 3.0296 3.6488 122.1 13.2 16.0
2011 01 26 12 07 11.4 -01 51 00 3.0042 3.6369 123.1 13.1 16.0
2011 01 27 12 06 59.9 -01 50 16 2.9790 3.6249 124.2 13.0 16.0
2011 01 28 12 06 47.2 -01 49 23 2.9539 3.6129 125.3 12.9 15.9
2011 01 29 12 06 33.2 -01 48 22 2.9289 3.6009 126.3 12.7 15.9
2011 01 30 12 06 18.0 -01 47 14 2.9041 3.5889 127.4 12.6 15.9
2011 01 31 12 06 01.4 -01 45 57 2.8795 3.5769 128.5 12.4 15.8

2011 09 01 12 10 01.2 -01 41 40 0.7654 0.4508 24.9 109.5 4.0
2011 09 02 12 09 37.2 -01 34 48 0.7403 0.4465 23.8 114.2 3.8
2011 09 03 12 08 50.0 -01 24 59 0.7156 0.4436 22.6 119.1 3.7
2011 09 04 12 07 37.6 -01 11 59 0.6914 0.4422 21.3 124.2 3.7
2011 09 05 12 05 58.6 -00 55 38 0.6678 0.4423 19.8 129.4 3.6
2011 09 06 12 03 51.6 -00 35 46 0.6450 0.4439 18.2 134.8 3.5
2011 09 07 12 01 15.8 -00 12 17 0.6230 0.4470 16.5 140.2 3.5
2011 09 08 11 58 10.8 +00 14 52 0.6020 0.4515 14.6 145.7 3.4
2011 09 09 11 54 36.6 +00 45 39 0.5821 0.4575 12.6 151.2 3.4
2011 09 10 11 50 33.7 +01 20 00 0.5634 0.4647 10.5 156.7 3.4

2011 09 11 11 46 03.1 +01 57 45 0.5459 0.4732 8.3 162.2 3.4
2011 09 12 11 41 06.2 +02 38 40 0.5296 0.4829 5.9 167.6 3.5
2011 09 13 11 35 44.7 +03 22 30 0.5147 0.4936 3.5 172.9 3.5
2011 09 14 11 30 00.8 +04 08 53 0.5011 0.5052 1.2 177.7 3.5
2011 09 15 11 23 56.9 +04 57 27 0.4887 0.5177 2.1 175.9 3.6
2011 09 16 11 17 35.4 +05 47 48 0.4777 0.5311 4.8 170.9 3.6
2011 09 17 11 10 59.1 +06 39 29 0.4678 0.5451 7.6 165.9 3.7
2011 09 18 11 04 10.5 +07 32 04 0.4592 0.5597 10.4 161.0 3.8
2011 09 19 10 57 12.2 +08 25 10 0.4516 0.5749 13.3 156.2 3.9
2011 09 20 10 50 06.9 +09 18 20 0.4451 0.5905 16.3 151.5 4.0
2011 09 21 10 42 56.9 +10 11 12 0.4397 0.6066 19.2 147.0 4.0
2011 09 22 10 35 44.3 +11 03 27 0.4351 0.6230 22.2 142.6 4.1
2011 09 23 10 28 31.1 +11 54 48 0.4314 0.6398 25.1 138.3 4.2
2011 09 24 10 21 18.9 +12 44 58 0.4284 0.6568 28.0 134.1 4.3
2011 09 25 10 14 09.3 +13 33 48 0.4262 0.6741 30.9 130.1 4.4
2011 09 26 10 07 03.4 +14 21 07 0.4246 0.6916 33.8 126.2 4.5
2011 09 27 10 00 02.1 +15 06 49 0.4236 0.7093 36.6 122.5 4.6
2011 09 28 09 53 06.2 +15 50 50 0.4231 0.7271 39.4 118.9 4.7
2011 09 29 09 46 16.2 +16 33 08 0.4230 0.7450 42.2 115.4 4.9
2011 09 30 09 39 32.4 +17 13 41 0.4234 0.7630 44.9 112.0 5.0


__________________


L

Posts: 131433
Date:
Permalink  
 

Comet Elenin may not be as glorious as Comet Hale-Bopp, but it might possibly turn into one of the best and easiest viewed comets of the year 2011!
Discovered December 10, 2010, Comet Elenin (also known as C/2010 X1 (Elenin) by Astronomers) showed up as a very faint "speck" of fuzzy haze detected on a CCD image acquired by Leonid Elenin of Moscow, by utilising a remotely controlled telescope at the ISON-NM Observatory (H15).

Read more

__________________


L

Posts: 131433
Date:
Permalink  
 

20 . . , - ( ).
Read more

__________________


L

Posts: 131433
Date:
Permalink  
 

Orbital elements:
C/2010 X1 (Elenin)

T 2010 Apr. 1.80995 TT MPC

q 5.1516487 (2000.0) P Q

Peri. 181.19274 -0.77551263 -0.63111764

Node 319.65918 +0.57944608 -0.70118937

e 1.0 Incl. 1.45638 +0.25064398 -0.33169865

From 33 observations 2010 Dec. 10-12.


MPEC 2010 - X101


Comet C/2010 X1 (ELENIN) was discovered on the 10th December 2010,  by L. Elenin at the ISON-NM Observatory, Mayhill.
The orbital elements of the comet indicate a perihelion passage on the 1st April, 2010, at a distance of 5.15 AU from the Sun.


__________________
«First  <  1 2 3 | Page of 3  sorted by
 
Quick Reply

Please log in to post quick replies.



Create your own FREE Forum
Report Abuse
Powered by ActiveBoard